Time,TemperatureF,DewpointF,PressureIn,WindDirection,WindDirectionDegrees,WindSpeedMPH,WindSpeedGustMPH,Humidity,HourlyPrecipIn,Conditions,Clouds,dailyrainin,SolarRadiationWatts/m^2,SoftwareType,DateUTC
2013-09-05 00:01:00,63.5,57.2,29.92,SSE,167,2.0,2.0,80,0.00,,---,0.01,0.00,VWS V14.00,2013-09-05 04:01:00,
2013-09-05 00:06:00,63.5,57.2,29.91,SSE,167,0.0,1.0,80,0.00,,---,0.01,0.00,VWS V14.00,2013-09-05 04:06:00,
2013-09-05 00:11:00,63.5,57.2,29.91,SSE,167,0.0,1.0,80,0.00,,---,0.01,0.00,VWS V14.00,2013-09-05 04:11:00,
2013-09-05 00:16:00,63.4,57.1,29.90,SSE,167,0.0,0.0,80,0.00,,---,0.00,0.00,VWS V14.00,2013-09-05 04:16:00,
2013-09-05 00:21:00,63.2,57.3,29.90,SSE,167,0.0,1.0,81,0.00,,---,0.00,0.00,VWS V14.00,2013-09-05 04:21:00,
2013-09-05 00:26:00,63.1,57.2,29.90,SSE,167,0.0,0.0,81,0.00,,---,0.00,0.00,VWS V14.00,2013-09-05 04:26:00,
2013-09-05 00:31:00,62.9,57.0,29.90,SSE,167,0.0,0.0,81,0.00,,---,0.00,0.00,VWS V14.00,2013-09-05 04:31:00,
2013-09-05 00:36:00,62.9,57.0,29.90,SSE,167,0.0,0.0,81,0.00,,---,0.00,0.00,VWS V14.00,2013-09-05 04:36:00,
2013-09-05 00:41:00,62.9,57.0,29.90,SSE,167,0.0,0.0,81,0.00,,---,0.00,0.00,VWS V14.00,2013-09-05 04:41:00,
2013-09-05 00:46:00,62.9,57.3,29.90,SSE,167,0.0,0.0,82,0.00,,---,0.00,0.00,VWS V14.00,2013-09-05 04:46:00,
2013-09-05 00:51:00,62.7,57.1,29.90,SSE,167,0.0,0.0,82,0.00,,---,0.00,0.00,VWS V14.00,2013-09-05 04:51:00,
2013-09-05 00:56:00,62.6,57.0,29.90,SSE,167,0.0,0.0,82,0.00,,---,0.00,0.00,VWS V14.00,2013-09-05 04:56:00,
2013-09-05 01:01:00,62.6,57.0,29.90,SSE,167,0.0,0.0,82,0.00,,---,0.00,0.00,VWS V14.00,2013-09-05 05:01:00,
2013-09-05 01:06:00,62.6,57.0,29.90,SSE,167,0.0,2.0,82,0.00,,---,0.00,0.00,VWS V14.00,2013-09-05 05:06:00,
2013-09-05 01:11:00,62.7,57.1,29.89,SSE,167,1.0,1.0,82,0.00,,---,0.00,0.00,VWS V14.00,2013-09-05 05:11:00,
2013-09-05 01:16:00,62.9,57.3,29.89,SSE,167,1.0,2.0,82,0.00,,---,0.00,0.00,VWS V14.00,2013-09-05 05:16:00,
2013-09-05 01:21:00,62.9,57.3,29.89,SSE,167,0.0,0.0,82,0.00,,---,0.00,0.00,VWS V14.00,2013-09-05 05:21:00,
2013-09-05 01:26:00,62.9,57.3,29.89,SSE,167,0.0,1.0,82,0.00,,---,0.00,0.00,VWS V14.00,2013-09-05 05:26:00,
2013-09-05 01:31:00,62.9,57.3,29.89,SSE,167,0.0,0.0,82,0.00,,---,0.00,0.00,VWS V14.00,2013-09-05 05:31:00,
2013-09-05 01:36:00,63.1,57.5,29.89,SSE,167,0.0,0.0,82,0.00,,---,0.00,0.00,VWS V14.00,2013-09-05 05:36:00,
2013-09-05 01:41:00,63.1,57.5,29.89,SSE,167,0.0,0.0,82,0.00,,---,0.00,0.00,VWS V14.00,2013-09-05 05:41:00,
2013-09-05 01:46:00,62.9,57.7,29.89,SSE,167,0.0,0.0,83,0.00,,---,0.00,0.00,VWS V14.00,2013-09-05 05:46:00,
2013-09-05 01:51:00,62.9,57.7,29.89,SSE,167,0.0,0.0,83,0.00,,---,0.00,0.00,VWS V14.00,2013-09-05 05:51:00,
2013-09-05 01:56:00,62.7,57.5,29.89,SSE,167,0.0,0.0,83,0.00,,---,0.00,0.00,VWS V14.00,2013-09-05 05:56:00,
2013-09-05 02:01:00,62.6,57.4,29.88,SSE,167,0.0,0.0,83,0.00,,---,0.00,0.00,VWS V14.00,2013-09-05 06:01:00,
2013-09-05 02:06:00,62.4,57.5,29.89,SSE,167,0.0,0.0,84,0.00,,---,0.00,0.00,VWS V14.00,2013-09-05 06:06:00,
2013-09-05 02:11:00,62.1,57.2,29.88,SSE,167,0.0,0.0,84,0.00,,---,0.00,0.00,VWS V14.00,2013-09-05 06:11:00,
2013-09-05 02:16:00,62.0,57.5,29.88,SSE,167,0.0,1.0,85,0.00,,---,0.00,0.00,VWS V14.00,2013-09-05 06:16:00,
2013-09-05 02:21:00,61.8,57.2,29.88,SSE,167,0.0,0.0,85,0.00,,---,0.00,0.00,VWS V14.00,2013-09-05 06:21:00,
2013-09-05 02:26:00,61.6,57.4,29.88,SSE,167,0.0,0.0,86,0.00,,---,0.00,0.00,VWS V14.00,2013-09-05 06:26:00,
2013-09-05 02:31:00,61.6,57.4,29.88,SSE,167,0.0,0.0,86,0.00,,---,0.00,0.00,VWS V14.00,2013-09-05 06:31:00,
2013-09-05 02:36:00,61.5,57.3,29.88,SSE,167,0.0,0.0,86,0.00,,---,0.00,0.00,VWS V14.00,2013-09-05 06:36:00,
2013-09-05 02:41:00,61.5,57.6,29.88,SSE,167,0.0,1.0,87,0.00,,---,0.00,0.00,VWS V14.00,2013-09-05 06:41:00,
2013-09-05 02:46:00,61.3,57.4,29.88,SSE,167,0.0,0.0,87,0.00,,---,0.00,0.00,VWS V14.00,2013-09-05 06:46:00,
2013-09-05 02:51:00,61.2,57.6,29.88,SSE,167,0.0,0.0,88,0.00,,---,0.00,0.00,VWS V14.00,2013-09-05 06:51:00,
2013-09-05 02:56:00,60.9,57.3,29.88,SSE,167,0.0,0.0,88,0.00,,---,0.00,0.00,VWS V14.00,2013-09-05 06:56:00,
2013-09-05 03:01:00,60.5,57.2,29.88,SSE,167,0.0,0.0,89,0.00,,---,0.00,0.00,VWS V14.00,2013-09-05 07:01:00,
2013-09-05 03:06:00,60.4,57.5,29.88,SSE,167,0.0,0.0,90,0.00,,---,0.00,0.00,VWS V14.00,2013-09-05 07:06:00,
2013-09-05 03:11:00,60.4,57.5,29.88,SSE,167,0.0,0.0,90,0.00,,---,0.00,0.00,VWS V14.00,2013-09-05 07:11:00,
2013-09-05 03:15:00,60.4,57.5,29.88,SSE,167,0.0,0.0,90,0.00,,---,0.00,0.00,VWS V14.00,2013-09-05 07:15:00,
2013-09-05 03:20:00,60.4,57.5,29.88,SSE,167,0.0,0.0,90,0.00,,---,0.00,0.00,VWS V14.00,2013-09-05 07:20:00,
2013-09-05 03:25:00,60.4,57.5,29.88,SSE,167,0.0,1.0,90,0.00,,---,0.00,0.00,VWS V14.00,2013-09-05 07:25:00,
2013-09-05 03:30:00,60.5,57.6,29.87,SSE,167,0.0,0.0,90,0.00,,---,0.00,0.00,VWS V14.00,2013-09-05 07:30:00,
2013-09-05 03:35:00,60.5,57.6,29.87,SSE,167,0.0,0.0,90,0.00,,---,0.00,0.00,VWS V14.00,2013-09-05 07:35:00,
2013-09-05 03:40:00,60.4,57.5,29.87,SSE,167,0.0,0.0,90,0.00,,---,0.00,0.00,VWS V14.00,2013-09-05 07:40:00,
2013-09-05 03:45:00,60.4,57.5,29.87,SSE,167,0.0,0.0,90,0.00,,---,0.00,0.00,VWS V14.00,2013-09-05 07:45:00,
2013-09-05 03:50:00,60.1,57.2,29.87,SSE,167,0.0,1.0,90,0.00,,---,0.00,0.00,VWS V14.00,2013-09-05 07:50:00,
2013-09-05 03:55:00,59.9,57.3,29.86,SSE,167,0.0,0.0,91,0.00,,---,0.00,0.00,VWS V14.00,2013-09-05 07:55:00,
2013-09-05 04:00:00,59.8,57.2,29.86,SSE,167,1.0,1.0,91,0.00,,---,0.00,0.00,VWS V14.00,2013-09-05 08:00:00,
2013-09-05 04:05:00,59.9,57.3,29.86,SSE,167,0.0,0.0,91,0.00,,---,0.00,0.00,VWS V14.00,2013-09-05 08:05:00,
2013-09-05 04:10:00,59.9,57.3,29.86,SSE,167,0.0,0.0,91,0.00,,---,0.00,0.00,VWS V14.00,2013-09-05 08:10:00,
2013-09-05 04:15:00,60.1,57.2,29.86,SSE,167,0.0,0.0,90,0.00,,---,0.00,0.00,VWS V14.00,2013-09-05 08:15:00,
2013-09-05 04:20:00,60.1,57.2,29.87,SSE,167,0.0,0.0,90,0.00,,---,0.00,0.00,VWS V14.00,2013-09-05 08:20:00,
2013-09-05 04:25:00,60.1,57.2,29.87,SSE,167,0.0,0.0,90,0.00,,---,0.00,0.00,VWS V14.00,2013-09-05 08:25:00,
2013-09-05 04:30:00,60.1,57.2,29.87,SSE,167,0.0,0.0,90,0.00,,---,0.00,0.00,VWS V14.00,2013-09-05 08:30:00,
2013-09-05 04:35:00,59.9,57.3,29.87,SSE,167,0.0,0.0,91,0.00,,---,0.00,0.00,VWS V14.00,2013-09-05 08:35:00,
2013-09-05 04:40:00,59.8,57.2,29.87,SSE,167,0.0,0.0,91,0.00,,---,0.00,0.00,VWS V14.00,2013-09-05 08:40:00,
2013-09-05 04:45:00,59.6,57.0,29.87,SSE,167,0.0,0.0,91,0.00,,---,0.00,0.00,VWS V14.00,2013-09-05 08:45:00,
2013-09-05 04:50:00,59.5,57.2,29.88,SSE,167,0.0,0.0,92,0.00,,---,0.00,0.00,VWS V14.00,2013-09-05 08:50:00,
2013-09-05 04:55:00,59.5,57.2,29.88,SSE,167,0.0,0.0,92,0.00,,---,0.00,0.00,VWS V14.00,2013-09-05 08:55:00,
2013-09-05 05:00:00,59.3,57.0,29.89,SSE,167,0.0,0.0,92,0.00,,---,0.00,0.00,VWS V14.00,2013-09-05 09:00:00,
2013-09-05 05:05:00,59.3,57.0,29.89,SSE,167,0.0,0.0,92,0.00,,---,0.00,0.00,VWS V14.00,2013-09-05 09:05:00,
2013-09-05 05:10:00,59.2,57.2,29.89,SSE,167,0.0,0.0,93,0.00,,---,0.00,0.00,VWS V14.00,2013-09-05 09:10:00,
2013-09-05 05:15:00,59.0,57.0,29.88,SSE,167,0.0,0.0,93,0.00,,---,0.00,0.00,VWS V14.00,2013-09-05 09:15:00,
2013-09-05 05:20:00,59.0,57.0,29.88,SSE,167,0.0,0.0,93,0.00,,---,0.00,0.00,VWS V14.00,2013-09-05 09:20:00,
2013-09-05 05:25:00,59.0,57.0,29.88,SSE,167,0.0,0.0,93,0.00,,---,0.00,0.00,VWS V14.00,2013-09-05 09:25:00,
2013-09-05 05:30:00,59.0,57.3,29.88,SSE,167,0.0,0.0,94,0.00,,---,0.00,0.00,VWS V14.00,2013-09-05 09:30:00,
2013-09-05 05:35:00,59.0,57.3,29.87,SSE,167,0.0,0.0,94,0.00,,---,0.00,0.00,VWS V14.00,2013-09-05 09:35:00,
2013-09-05 05:40:00,59.0,57.3,29.88,SSE,167,0.0,0.0,94,0.00,,---,0.00,0.00,VWS V14.00,2013-09-05 09:40:00,
2013-09-05 05:45:00,58.9,57.2,29.89,SSE,167,0.0,0.0,94,0.00,,---,0.00,0.00,VWS V14.00,2013-09-05 09:45:00,
2013-09-05 05:50:00,58.9,57.2,29.89,SSE,167,0.0,0.0,94,0.00,,---,0.00,0.00,VWS V14.00,2013-09-05 09:50:00,
2013-09-05 05:55:00,58.7,57.0,29.90,SSE,167,0.0,0.0,94,0.00,,---,0.00,0.00,VWS V14.00,2013-09-05 09:55:00,
2013-09-05 06:00:00,58.7,57.3,29.90,SSE,167,0.0,0.0,95,0.00,,---,0.00,0.00,VWS V14.00,2013-09-05 10:00:00,
2013-09-05 06:05:00,58.7,57.3,29.90,SSE,167,0.0,0.0,95,0.00,,---,0.00,0.00,VWS V14.00,2013-09-05 10:05:00,
2013-09-05 06:10:00,58.7,57.3,29.89,SSE,167,0.0,0.0,95,0.00,,---,0.00,0.00,VWS V14.00,2013-09-05 10:10:00,
2013-09-05 06:15:00,58.7,57.3,29.90,SSE,167,0.0,0.0,95,0.00,,---,0.00,0.00,VWS V14.00,2013-09-05 10:15:00,
2013-09-05 06:20:00,58.9,57.5,29.90,SSE,167,0.0,0.0,95,0.00,,---,0.00,0.00,VWS V14.00,2013-09-05 10:20:00,
2013-09-05 06:25:00,59.0,57.6,29.90,SSE,167,0.0,2.0,95,0.00,,---,0.00,0.00,VWS V14.00,2013-09-05 10:25:00,
2013-09-05 06:30:00,59.0,57.6,29.90,SSE,167,0.0,0.0,95,0.00,,---,0.00,5.00,VWS V14.00,2013-09-05 10:30:00,
2013-09-05 06:35:00,59.2,57.8,29.90,SSE,167,0.0,0.0,95,0.00,,---,0.00,7.00,VWS V14.00,2013-09-05 10:35:00,
2013-09-05 06:40:00,59.3,57.9,29.90,SSE,167,0.0,0.0,95,0.00,,---,0.00,7.00,VWS V14.00,2013-09-05 10:40:00,
2013-09-05 06:45:00,59.3,57.9,29.91,SSE,167,0.0,0.0,95,0.00,,---,0.00,11.00,VWS V14.00,2013-09-05 10:45:00,
2013-09-05 06:50:00,59.3,57.9,29.91,SSE,167,0.0,0.0,95,0.00,,---,0.00,18.00,VWS V14.00,2013-09-05 10:50:00,
2013-09-05 06:55:00,59.5,58.1,29.91,SSE,167,0.0,0.0,95,0.00,,---,0.00,25.00,VWS V14.00,2013-09-05 10:55:00,
2013-09-05 07:00:00,59.5,58.1,29.91,SSE,167,0.0,0.0,95,0.00,,---,0.00,33.00,VWS V14.00,2013-09-05 11:00:00,
2013-09-05 07:05:00,59.6,58.2,29.92,SSE,167,0.0,0.0,95,0.00,,---,0.00,40.00,VWS V14.00,2013-09-05 11:05:00,
2013-09-05 07:10:00,59.8,58.4,29.91,SSE,167,0.0,0.0,95,0.00,,---,0.00,42.00,VWS V14.00,2013-09-05 11:10:00,
2013-09-05 07:15:00,60.1,58.7,29.92,SSE,167,0.0,0.0,95,0.00,,---,0.00,56.00,VWS V14.00,2013-09-05 11:15:00,
2013-09-05 07:20:00,60.2,58.8,29.92,SSE,167,0.0,0.0,95,0.00,,---,0.00,54.00,VWS V14.00,2013-09-05 11:20:00,
2013-09-05 07:25:00,60.4,58.7,29.92,SSE,167,0.0,0.0,94,0.00,,---,0.00,63.00,VWS V14.00,2013-09-05 11:25:00,
2013-09-05 07:30:00,60.7,59.0,29.92,SSE,167,0.0,0.0,94,0.00,,---,0.00,70.00,VWS V14.00,2013-09-05 11:30:00,
2013-09-05 07:35:00,60.9,59.2,29.92,SSE,167,0.0,0.0,94,0.00,,---,0.00,88.00,VWS V14.00,2013-09-05 11:35:00,
2013-09-05 07:40:00,61.0,59.0,29.92,SSE,167,0.0,0.0,93,0.00,,---,0.00,51.00,VWS V14.00,2013-09-05 11:40:00,
2013-09-05 07:45:00,61.3,59.3,29.92,SSE,167,0.0,0.0,93,0.00,,---,0.00,44.00,VWS V14.00,2013-09-05 11:45:00,
2013-09-05 07:50:00,61.5,59.5,29.92,SSE,167,0.0,0.0,93,0.00,,---,0.00,37.00,VWS V14.00,2013-09-05 11:50:00,
2013-09-05 07:55:00,61.6,59.3,29.92,SSE,167,0.0,0.0,92,0.00,,---,0.00,47.00,VWS V14.00,2013-09-05 11:55:00,
2013-09-05 08:00:00,61.8,59.5,29.92,SSE,167,0.0,0.0,92,0.00,,---,0.00,51.00,VWS V14.00,2013-09-05 12:00:00,
2013-09-05 08:05:00,62.0,59.7,29.93,SSE,167,0.0,0.0,92,0.00,,---,0.00,56.00,VWS V14.00,2013-09-05 12:05:00,
2013-09-05 08:10:00,62.1,59.8,29.93,SSE,167,0.0,0.0,92,0.00,,---,0.00,65.00,VWS V14.00,2013-09-05 12:10:00,
2013-09-05 08:15:00,62.1,59.5,29.93,SSE,167,0.0,2.0,91,0.00,,---,0.00,69.00,VWS V14.00,2013-09-05 12:15:00,
2013-09-05 08:20:00,62.3,59.3,29.93,SSE,167,0.0,1.0,90,0.00,,---,0.00,70.00,VWS V14.00,2013-09-05 12:20:00,
2013-09-05 08:25:00,62.4,59.1,29.93,SSE,167,0.0,0.0,89,0.00,,---,0.00,69.00,VWS V14.00,2013-09-05 12:25:00,
2013-09-05 08:30:00,62.6,59.3,29.93,SSE,167,1.0,2.0,89,0.00,,---,0.00,76.00,VWS V14.00,2013-09-05 12:30:00,
2013-09-05 08:35:00,62.7,59.4,29.93,SSE,167,0.0,1.0,89,0.00,,---,0.00,98.00,VWS V14.00,2013-09-05 12:35:00,
2013-09-05 08:40:00,63.1,60.1,29.93,SSE,167,0.0,0.0,90,0.00,,---,0.00,127.00,VWS V14.00,2013-09-05 12:40:00,
2013-09-05 08:45:00,63.2,59.6,29.93,SSE,167,0.0,0.0,88,0.00,,---,0.00,148.00,VWS V14.00,2013-09-05 12:45:00,
2013-09-05 08:50:00,63.4,59.8,29.93,SSE,167,0.0,0.0,88,0.00,,---,0.00,148.00,VWS V14.00,2013-09-05 12:50:00,
2013-09-05 08:55:00,63.5,59.6,29.93,SSE,167,1.0,1.0,87,0.00,,---,0.00,139.00,VWS V14.00,2013-09-05 12:55:00,
2013-09-05 09:00:00,63.7,59.8,29.93,SSE,167,0.0,1.0,87,0.00,,---,0.00,102.00,VWS V14.00,2013-09-05 13:00:00,
2013-09-05 09:05:00,63.9,59.6,29.94,SSE,167,0.0,1.0,86,0.00,,---,0.00,111.00,VWS V14.00,2013-09-05 13:05:00,
2013-09-05 09:10:00,64.2,59.9,29.93,SSE,167,0.0,1.0,86,0.00,,---,0.00,116.00,VWS V14.00,2013-09-05 13:10:00,
2013-09-05 09:15:00,64.5,59.9,29.94,SSE,167,0.0,0.0,85,0.00,,---,0.00,151.00,VWS V14.00,2013-09-05 13:15:00,
2013-09-05 09:20:00,65.0,59.7,29.94,WNW,290,1.0,4.0,83,0.00,,---,0.00,218.00,VWS V14.00,2013-09-05 13:20:00,
2013-09-05 09:25:00,65.5,59.9,29.94,WNW,290,0.0,2.0,82,0.00,,---,0.00,148.00,VWS V14.00,2013-09-05 13:25:00,
2013-09-05 09:30:00,66.0,60.0,29.94,West,271,0.0,1.0,81,0.00,,---,0.00,125.00,VWS V14.00,2013-09-05 13:30:00,
2013-09-05 09:35:00,66.4,60.7,29.95,NNE,19,0.0,2.0,82,0.00,,---,0.00,109.00,VWS V14.00,2013-09-05 13:35:00,
2013-09-05 09:40:00,66.9,61.2,29.94,NNE,15,5.0,5.0,82,0.00,,---,0.00,121.00,VWS V14.00,2013-09-05 13:40:00,
2013-09-05 09:45:00,67.4,60.7,29.94,NNE,33,0.0,5.0,79,0.00,,---,0.00,179.00,VWS V14.00,2013-09-05 13:45:00,
2013-09-05 09:50:00,67.9,60.4,29.94,North,360,0.0,2.0,77,0.00,,---,0.00,276.00,VWS V14.00,2013-09-05 13:50:00,
2013-09-05 09:55:00,68.3,60.1,29.94,West,281,2.0,7.0,75,0.00,,---,0.00,336.00,VWS V14.00,2013-09-05 13:55:00,
2013-09-05 10:00:00,68.3,59.3,29.95,WNW,295,2.0,12.0,73,0.00,,---,0.00,334.00,VWS V14.00,2013-09-05 14:00:00,
2013-09-05 10:05:00,68.4,59.4,29.95,WNW,293,3.0,7.0,73,0.00,,---,0.00,327.00,VWS V14.00,2013-09-05 14:05:00,
2013-09-05 10:10:00,68.6,59.6,29.94,West,275,5.0,11.0,73,0.00,,---,0.00,216.00,VWS V14.00,2013-09-05 14:10:00,
2013-09-05 10:15:00,68.4,58.6,29.95,NNW,327,0.0,4.0,71,0.00,,---,0.00,207.00,VWS V14.00,2013-09-05 14:15:00,
2013-09-05 10:20:00,68.3,59.7,29.95,NE,53,5.0,6.0,74,0.00,,---,0.00,343.00,VWS V14.00,2013-09-05 14:20:00,
2013-09-05 10:25:00,68.4,59.4,29.95,SW,225,3.0,6.0,73,0.00,,---,0.00,302.00,VWS V14.00,2013-09-05 14:25:00,
2013-09-05 10:30:00,68.6,59.6,29.94,East,82,3.0,3.0,73,0.00,,---,0.00,343.00,VWS V14.00,2013-09-05 14:30:00,
2013-09-05 10:35:00,68.8,59.4,29.95,North,5,4.0,9.0,72,0.00,,---,0.00,232.00,VWS V14.00,2013-09-05 14:35:00,
2013-09-05 10:39:00,68.6,59.2,29.95,North,360,5.0,5.0,72,0.00,,---,0.00,232.00,VWS V14.00,2013-09-05 14:39:00,
2013-09-05 10:44:00,68.4,59.0,29.95,NNE,19,0.0,1.0,72,0.00,,---,0.00,239.00,VWS V14.00,2013-09-05 14:44:00,
2013-09-05 10:49:00,68.6,58.4,29.95,NE,42,7.0,7.0,70,0.00,,---,0.00,223.00,VWS V14.00,2013-09-05 14:49:00,
2013-09-05 10:54:00,68.9,57.1,29.95,SSE,167,2.0,2.0,66,0.00,,---,0.00,230.00,VWS V14.00,2013-09-05 14:54:00,
2013-09-05 10:59:00,68.9,54.0,29.95,NNW,344,10.0,10.0,59,0.00,,---,0.00,211.00,VWS V14.00,2013-09-05 14:59:00,
2013-09-05 11:04:00,68.6,55.1,29.95,West,259,4.0,6.0,62,0.00,,---,0.00,195.00,VWS V14.00,2013-09-05 15:04:00,
2013-09-05 11:09:00,68.4,54.4,29.95,NNW,329,4.0,4.0,61,0.00,,---,0.00,213.00,VWS V14.00,2013-09-05 15:09:00,
2013-09-05 11:14:00,68.9,54.9,29.95,WSW,238,1.0,6.0,61,0.00,,---,0.00,220.00,VWS V14.00,2013-09-05 15:14:00,
2013-09-05 11:19:00,69.1,54.2,29.95,WNW,293,5.0,5.0,59,0.00,,---,0.00,304.00,VWS V14.00,2013-09-05 15:19:00,
2013-09-05 11:24:00,69.4,53.5,29.95,NW,322,2.0,4.0,57,0.00,,---,0.00,561.00,VWS V14.00,2013-09-05 15:24:00,
2013-09-05 11:29:00,69.8,53.4,29.95,NW,315,1.0,1.0,56,0.00,,---,0.00,271.00,VWS V14.00,2013-09-05 15:29:00,
2013-09-05 11:34:00,69.4,52.0,29.95,NE,45,3.0,4.0,54,0.00,,---,0.00,439.00,VWS V14.00,2013-09-05 15:34:00,
2013-09-05 11:39:00,69.4,53.0,29.95,NW,318,0.0,1.0,56,0.00,,---,0.00,538.00,VWS V14.00,2013-09-05 15:39:00,
2013-09-05 11:44:00,69.6,54.7,29.95,ESE,110,2.0,3.0,59,0.00,,---,0.00,436.00,VWS V14.00,2013-09-05 15:44:00,
2013-09-05 11:49:00,69.9,53.5,29.95,NNW,333,1.0,3.0,56,0.00,,---,0.00,575.00,VWS V14.00,2013-09-05 15:49:00,
2013-09-05 11:54:00,69.9,51.5,29.95,NNW,336,5.0,5.0,52,0.00,,---,0.00,471.00,VWS V14.00,2013-09-05 15:54:00,
2013-09-05 11:59:00,69.9,53.0,29.96,WNW,300,1.0,2.0,55,0.00,,---,0.00,517.00,VWS V14.00,2013-09-05 15:59:00,
2013-09-05 12:04:00,69.8,53.4,29.96,NW,316,3.0,7.0,56,0.00,,---,0.00,371.00,VWS V14.00,2013-09-05 16:04:00,
2013-09-05 12:09:00,69.4,53.5,29.96,NW,314,2.0,2.0,57,0.00,,---,0.00,468.00,VWS V14.00,2013-09-05 16:09:00,
2013-09-05 12:14:00,69.6,54.7,29.95,NNE,32,3.0,5.0,59,0.00,,---,0.00,468.00,VWS V14.00,2013-09-05 16:14:00,
2013-09-05 12:19:00,69.9,54.5,29.96,NNW,345,4.0,5.0,58,0.00,,---,0.00,466.00,VWS V14.00,2013-09-05 16:19:00,
2013-09-05 12:24:00,69.9,53.5,29.96,North,11,1.0,3.0,56,0.00,,---,0.00,715.00,VWS V14.00,2013-09-05 16:24:00,
2013-09-05 12:29:00,70.3,52.4,29.96,NW,323,2.0,4.0,53,0.00,,---,0.00,710.00,VWS V14.00,2013-09-05 16:29:00,
2013-09-05 12:34:00,70.4,52.5,29.96,NNW,344,3.0,4.0,53,0.00,,---,0.00,216.00,VWS V14.00,2013-09-05 16:34:00,
2013-09-05 12:39:00,70.4,53.0,29.96,NNE,18,1.0,2.0,54,0.00,,---,0.00,821.00,VWS V14.00,2013-09-05 16:39:00,
2013-09-05 12:44:00,70.8,51.3,29.96,ENE,67,0.0,2.0,50,0.00,,---,0.00,738.00,VWS V14.00,2013-09-05 16:44:00,
2013-09-05 12:49:00,70.9,51.3,29.96,NE,34,1.0,2.0,50,0.00,,---,0.00,784.00,VWS V14.00,2013-09-05 16:49:00,
2013-09-05 12:55:00,71.5,54.0,29.95,WSW,254,5.0,5.0,54,0.00,,---,0.00,796.00,VWS V14.00,2013-09-05 16:55:00,
2013-09-05 13:00:00,71.8,51.6,29.96,WNW,303,5.0,14.0,49,0.00,,---,0.00,830.00,VWS V14.00,2013-09-05 17:00:00,
2013-09-05 13:05:00,72.1,51.3,29.96,WSW,256,2.0,3.0,48,0.00,,---,0.00,805.00,VWS V14.00,2013-09-05 17:05:00,
2013-09-05 13:10:00,72.5,51.2,29.96,WNW,299,9.0,9.0,47,0.00,,---,0.00,835.00,VWS V14.00,2013-09-05 17:10:00,
2013-09-05 13:15:00,72.7,51.9,29.96,NNE,18,1.0,6.0,48,0.00,,---,0.00,837.00,VWS V14.00,2013-09-05 17:15:00,
2013-09-05 13:20:00,72.5,49.4,29.96,West,265,4.0,11.0,44,0.00,,---,0.00,693.00,VWS V14.00,2013-09-05 17:20:00,
2013-09-05 13:25:00,72.5,51.2,29.96,NW,323,3.0,5.0,47,0.00,,---,0.00,844.00,VWS V14.00,2013-09-05 17:25:00,
2013-09-05 13:30:00,73.0,51.6,29.96,WNW,291,3.0,4.0,47,0.00,,---,0.00,905.00,VWS V14.00,2013-09-05 17:30:00,
2013-09-05 13:35:00,73.2,50.0,29.96,SSW,192,2.0,7.0,44,0.00,,---,0.00,837.00,VWS V14.00,2013-09-05 17:35:00,
2013-09-05 13:40:00,73.2,54.0,29.96,NW,309,3.0,5.0,51,0.00,,---,0.00,323.00,VWS V14.00,2013-09-05 17:40:00,
2013-09-05 13:45:00,72.7,50.8,29.96,North,355,2.0,5.0,46,0.00,,---,0.00,506.00,VWS V14.00,2013-09-05 17:45:00,
2013-09-05 13:50:00,72.0,53.4,29.96,North,5,9.0,10.0,52,0.00,,---,0.00,689.00,VWS V14.00,2013-09-05 17:50:00,
2013-09-05 13:55:00,72.0,48.9,29.97,South,173,0.0,4.0,44,0.00,,---,0.00,851.00,VWS V14.00,2013-09-05 17:55:00,
2013-09-05 14:00:00,72.3,49.8,29.96,WNW,293,0.0,4.0,45,0.00,,---,0.00,828.00,VWS V14.00,2013-09-05 18:00:00,
2013-09-05 14:05:00,72.3,46.7,29.96,NW,309,4.0,6.0,40,0.00,,---,0.00,482.00,VWS V14.00,2013-09-05 18:05:00,
2013-09-05 14:10:00,71.8,48.1,29.97,NE,35,1.0,6.0,43,0.00,,---,0.00,589.00,VWS V14.00,2013-09-05 18:10:00,
2013-09-05 14:15:00,71.6,49.8,29.97,WNW,302,1.0,9.0,46,0.00,,---,0.00,698.00,VWS V14.00,2013-09-05 18:15:00,
2013-09-05 14:20:00,70.9,43.4,29.97,WNW,286,6.0,12.0,37,0.00,,---,0.00,452.00,VWS V14.00,2013-09-05 18:20:00,
2013-09-05 14:25:00,70.8,46.6,29.98,WNW,303,7.0,9.0,42,0.00,,---,0.00,425.00,VWS V14.00,2013-09-05 18:25:00,
2013-09-05 14:30:00,70.3,45.5,29.98,WNW,294,5.0,5.0,41,0.00,,---,0.00,424.00,VWS V14.00,2013-09-05 18:30:00,
2013-09-05 14:35:00,70.1,48.4,29.98,NW,323,3.0,9.0,46,0.00,,---,0.00,439.00,VWS V14.00,2013-09-05 18:35:00,
2013-09-05 14:40:00,69.8,47.5,29.98,NNW,331,0.0,5.0,45,0.00,,---,0.00,522.00,VWS V14.00,2013-09-05 18:40:00,
2013-09-05 14:45:00,69.9,48.8,29.98,NNE,28,4.0,14.0,47,0.00,,---,0.00,406.00,VWS V14.00,2013-09-05 18:45:00,
2013-09-05 14:50:00,69.6,49.1,29.98,West,261,4.0,7.0,48,0.00,,---,0.00,415.00,VWS V14.00,2013-09-05 18:50:00,
2013-09-05 14:55:00,69.4,49.4,29.99,SW,231,9.0,10.0,49,0.00,,---,0.00,613.00,VWS V14.00,2013-09-05 18:55:00,
2013-09-05 15:00:00,69.4,46.6,29.99,NE,37,0.0,9.0,44,0.00,,---,0.00,622.00,VWS V14.00,2013-09-05 19:00:00,
2013-09-05 15:05:00,69.9,50.4,29.99,NE,40,4.0,12.0,50,0.00,,---,0.00,468.00,VWS V14.00,2013-09-05 19:05:00,
2013-09-05 15:10:00,70.3,47.4,29.99,West,279,3.0,8.0,44,0.00,,---,0.00,541.00,VWS V14.00,2013-09-05 19:10:00,
2013-09-05 15:15:00,69.6,49.1,30.00,NW,306,0.0,7.0,48,0.00,,---,0.00,454.00,VWS V14.00,2013-09-05 19:15:00,
2013-09-05 15:20:00,68.9,46.7,30.00,NNW,333,5.0,14.0,45,0.00,,---,0.00,308.00,VWS V14.00,2013-09-05 19:20:00,
2013-09-05 15:25:00,68.8,46.6,30.00,NW,324,4.0,9.0,45,0.00,,---,0.00,545.00,VWS V14.00,2013-09-05 19:25:00,
2013-09-05 15:30:00,68.8,47.8,30.00,North,5,2.0,6.0,47,0.00,,---,0.00,339.00,VWS V14.00,2013-09-05 19:30:00,
2013-09-05 15:35:00,68.4,48.5,30.00,West,262,0.0,2.0,49,0.00,,---,0.00,302.00,VWS V14.00,2013-09-05 19:35:00,
2013-09-05 15:40:00,68.3,48.4,30.00,NE,36,0.0,6.0,49,0.00,,---,0.00,374.00,VWS V14.00,2013-09-05 19:40:00,
2013-09-05 15:45:00,68.8,47.8,30.00,NW,325,0.0,3.0,47,0.00,,---,0.00,374.00,VWS V14.00,2013-09-05 19:45:00,
2013-09-05 15:50:00,69.3,48.2,30.00,East,79,3.0,6.0,47,0.00,,---,0.00,814.00,VWS V14.00,2013-09-05 19:50:00,
2013-09-05 15:55:00,69.6,47.3,30.00,North,350,2.0,4.0,45,0.00,,---,0.00,359.00,VWS V14.00,2013-09-05 19:55:00,
2013-09-05 16:00:00,69.6,49.1,30.00,NE,34,1.0,4.0,48,0.00,,---,0.00,285.00,VWS V14.00,2013-09-05 20:00:00,
2013-09-05 16:05:00,69.3,50.4,30.00,NW,325,0.0,5.0,51,0.00,,---,0.00,221.00,VWS V14.00,2013-09-05 20:05:00,
2013-09-05 16:10:00,69.1,51.3,30.00,NE,36,2.0,4.0,53,0.00,,---,0.00,260.00,VWS V14.00,2013-09-05 20:10:00,
2013-09-05 16:15:00,68.8,50.0,30.00,NNW,344,0.0,2.0,51,0.00,,---,0.00,163.00,VWS V14.00,2013-09-05 20:15:00,
2013-09-05 16:20:00,68.9,49.5,30.00,WNW,300,3.0,8.0,50,0.00,,---,0.00,608.00,VWS V14.00,2013-09-05 20:20:00,
2013-09-05 16:25:00,68.3,48.4,30.01,North,350,5.0,12.0,49,0.00,,---,0.00,63.00,VWS V14.00,2013-09-05 20:25:00,
2013-09-05 16:30:00,67.8,47.4,30.01,NNE,15,1.0,5.0,48,0.00,,---,0.00,489.00,VWS V14.00,2013-09-05 20:30:00,
2013-09-05 16:35:00,67.9,45.2,30.01,NNE,17,2.0,3.0,44,0.00,,---,0.00,473.00,VWS V14.00,2013-09-05 20:35:00,
2013-09-05 16:40:00,68.6,44.6,30.01,NW,315,4.0,10.0,42,0.00,,---,0.00,461.00,VWS V14.00,2013-09-05 20:40:00,
2013-09-05 16:45:00,68.6,47.0,30.01,NW,306,5.0,6.0,46,0.00,,---,0.00,448.00,VWS V14.00,2013-09-05 20:45:00,
2013-09-05 16:50:00,68.4,46.8,30.01,WNW,292,5.0,7.0,46,0.00,,---,0.00,434.00,VWS V14.00,2013-09-05 20:50:00,
2013-09-05 16:55:00,68.6,46.4,30.01,NW,315,7.0,7.0,45,0.00,,---,0.00,424.00,VWS V14.00,2013-09-05 20:55:00,
2013-09-05 17:00:00,68.9,47.3,30.01,WNW,286,1.0,6.0,46,0.00,,---,0.00,424.00,VWS V14.00,2013-09-05 21:00:00,
2013-09-05 17:05:00,68.8,47.2,30.01,NNE,29,6.0,9.0,46,0.00,,---,0.00,422.00,VWS V14.00,2013-09-05 21:05:00,
2013-09-05 17:10:00,68.6,48.2,30.01,NE,53,0.0,4.0,48,0.00,,---,0.00,396.00,VWS V14.00,2013-09-05 21:10:00,
2013-09-05 17:15:00,68.6,47.0,30.02,NW,309,2.0,3.0,46,0.00,,---,0.00,357.00,VWS V14.00,2013-09-05 21:15:00,
2013-09-05 17:20:00,68.3,47.9,30.02,NW,325,0.0,5.0,48,0.00,,---,0.00,336.00,VWS V14.00,2013-09-05 21:20:00,
2013-09-05 17:25:00,68.3,46.7,30.02,NW,306,5.0,7.0,46,0.00,,---,0.00,322.00,VWS V14.00,2013-09-05 21:25:00,
2013-09-05 17:30:00,68.1,45.4,30.02,WNW,302,1.0,5.0,44,0.00,,---,0.00,304.00,VWS V14.00,2013-09-05 21:30:00,
2013-09-05 17:35:00,67.8,46.3,30.03,West,274,6.0,12.0,46,0.00,,---,0.00,288.00,VWS V14.00,2013-09-05 21:35:00,
2013-09-05 17:40:00,67.6,44.9,30.03,WNW,286,3.0,4.0,44,0.00,,---,0.00,272.00,VWS V14.00,2013-09-05 21:40:00,
2013-09-05 17:45:00,67.4,45.3,30.03,NW,309,7.0,7.0,45,0.00,,---,0.00,253.00,VWS V14.00,2013-09-05 21:45:00,
2013-09-05 17:50:00,67.4,46.5,30.03,NNW,347,6.0,9.0,47,0.00,,---,0.00,241.00,VWS V14.00,2013-09-05 21:50:00,
2013-09-05 17:55:00,67.4,45.9,30.03,NW,320,8.0,8.0,46,0.00,,---,0.00,223.00,VWS V14.00,2013-09-05 21:55:00,
2013-09-05 18:00:00,67.4,45.9,30.03,WNW,290,1.0,1.0,46,0.00,,---,0.00,209.00,VWS V14.00,2013-09-05 22:00:00,
2013-09-05 18:05:00,67.1,45.1,30.03,North,355,6.0,6.0,45,0.00,,---,0.00,190.00,VWS V14.00,2013-09-05 22:05:00,
2013-09-05 18:10:00,66.9,43.7,30.04,NW,319,2.0,2.0,43,0.00,,---,0.00,174.00,VWS V14.00,2013-09-05 22:10:00,
2013-09-05 18:15:00,66.6,46.9,30.04,NW,321,0.0,2.0,49,0.00,,---,0.00,158.00,VWS V14.00,2013-09-05 22:15:00,
2013-09-05 18:19:00,66.0,43.5,30.04,West,275,4.0,5.0,44,0.00,,---,0.00,114.00,VWS V14.00,2013-09-05 22:19:00,
2013-09-05 18:24:00,65.5,44.8,30.04,West,266,0.0,1.0,47,0.00,,---,0.00,128.00,VWS V14.00,2013-09-05 22:24:00,
2013-09-05 18:29:00,65.2,44.5,30.04,NW,310,6.0,6.0,47,0.00,,---,0.00,49.00,VWS V14.00,2013-09-05 22:29:00,
2013-09-05 18:34:00,64.7,45.1,30.04,NNW,346,2.0,6.0,49,0.00,,---,0.00,25.00,VWS V14.00,2013-09-05 22:34:00,
2013-09-05 18:39:00,64.3,46.8,30.05,West,277,3.0,5.0,53,0.00,,---,0.00,21.00,VWS V14.00,2013-09-05 22:39:00,
2013-09-05 18:44:00,64.0,46.0,30.05,NE,55,0.0,1.0,52,0.00,,---,0.00,19.00,VWS V14.00,2013-09-05 22:44:00,
2013-09-05 18:49:00,63.9,44.9,30.05,NE,46,0.0,2.0,50,0.00,,---,0.00,16.00,VWS V14.00,2013-09-05 22:49:00,
2013-09-05 18:54:00,63.7,44.7,30.04,NW,324,0.0,0.0,50,0.00,,---,0.00,14.00,VWS V14.00,2013-09-05 22:54:00,
2013-09-05 18:59:00,63.4,43.9,30.05,NW,324,0.0,1.0,49,0.00,,---,0.00,12.00,VWS V14.00,2013-09-05 22:59:00,
2013-09-05 19:04:00,63.1,44.2,30.06,NW,325,0.0,1.0,50,0.00,,---,0.00,11.00,VWS V14.00,2013-09-05 23:04:00,
2013-09-05 19:09:00,62.9,44.5,30.06,NNW,342,3.0,3.0,51,0.00,,---,0.00,7.00,VWS V14.00,2013-09-05 23:09:00,
2013-09-05 19:14:00,62.4,44.6,30.06,West,272,1.0,2.0,52,0.00,,---,0.00,5.00,VWS V14.00,2013-09-05 23:14:00,
2013-09-05 19:19:00,62.1,44.8,30.06,West,272,0.0,1.0,53,0.00,,---,0.00,0.00,VWS V14.00,2013-09-05 23:19:00,
2013-09-05 19:24:00,61.8,45.5,30.06,West,275,0.0,0.0,55,0.00,,---,0.00,0.00,VWS V14.00,2013-09-05 23:24:00,
2013-09-05 19:29:00,61.5,45.2,30.06,West,278,0.0,0.0,55,0.00,,---,0.00,0.00,VWS V14.00,2013-09-05 23:29:00,
2013-09-05 19:34:00,61.2,44.9,30.07,West,278,2.0,2.0,55,0.00,,---,0.00,0.00,VWS V14.00,2013-09-05 23:34:00,
2013-09-05 19:39:00,60.7,45.8,30.07,West,278,0.0,0.0,58,0.00,,---,0.00,0.00,VWS V14.00,2013-09-05 23:39:00,
2013-09-05 19:44:00,60.2,45.4,30.08,West,278,0.0,0.0,58,0.00,,---,0.00,0.00,VWS V14.00,2013-09-05 23:44:00,
2013-09-05 19:49:00,59.9,45.1,30.08,West,278,0.0,1.0,58,0.00,,---,0.00,0.00,VWS V14.00,2013-09-05 23:49:00,
2013-09-05 19:54:00,59.5,45.2,30.08,West,278,0.0,0.0,59,0.00,,---,0.00,0.00,VWS V14.00,2013-09-05 23:54:00,
2013-09-05 19:59:00,59.2,45.8,30.08,West,278,0.0,0.0,61,0.00,,---,0.00,0.00,VWS V14.00,2013-09-05 23:59:00,
2013-09-05 20:04:00,58.7,45.7,30.08,West,278,0.0,0.0,62,0.00,,---,0.00,0.00,VWS V14.00,2013-09-06 00:04:00,
2013-09-05 20:09:00,58.4,45.9,30.09,West,278,0.0,0.0,63,0.00,,---,0.00,0.00,VWS V14.00,2013-09-06 00:09:00,
2013-09-05 20:14:00,58.1,46.0,30.09,West,278,0.0,1.0,64,0.00,,---,0.00,0.00,VWS V14.00,2013-09-06 00:14:00,
2013-09-05 20:19:00,57.6,45.5,30.09,West,278,0.0,1.0,64,0.00,,---,0.00,0.00,VWS V14.00,2013-09-06 00:19:00,
2013-09-05 20:24:00,57.5,46.2,30.09,West,278,0.0,0.0,66,0.00,,---,0.00,0.00,VWS V14.00,2013-09-06 00:24:00,
2013-09-05 20:29:00,57.2,46.0,30.09,West,281,0.0,0.0,66,0.00,,---,0.00,0.00,VWS V14.00,2013-09-06 00:29:00,
2013-09-05 20:34:00,57.0,46.2,30.10,NNE,28,0.0,0.0,67,0.00,,---,0.00,0.00,VWS V14.00,2013-09-06 00:34:00,
2013-09-05 20:39:00,56.9,46.5,30.10,NNE,28,0.0,0.0,68,0.00,,---,0.00,0.00,VWS V14.00,2013-09-06 00:39:00,
2013-09-05 20:44:00,56.6,46.6,30.10,NNE,28,0.0,0.0,69,0.00,,---,0.00,0.00,VWS V14.00,2013-09-06 00:44:00,
2013-09-05 20:49:00,56.3,46.7,30.10,NNE,28,0.0,2.0,70,0.00,,---,0.00,0.00,VWS V14.00,2013-09-06 00:49:00,
2013-09-05 20:54:00,56.2,47.3,30.11,NE,42,0.0,0.0,72,0.00,,---,0.00,0.00,VWS V14.00,2013-09-06 00:54:00,
2013-09-05 20:59:00,55.9,46.7,30.11,NE,42,0.0,0.0,71,0.00,,---,0.00,0.00,VWS V14.00,2013-09-06 00:59:00,
2013-09-05 21:04:00,55.7,46.5,30.11,ENE,71,0.0,3.0,71,0.00,,---,0.00,0.00,VWS V14.00,2013-09-06 01:04:00,
2013-09-05 21:09:00,55.6,46.7,30.11,ENE,71,0.0,1.0,72,0.00,,---,0.00,0.00,VWS V14.00,2013-09-06 01:09:00,
2013-09-05 21:14:00,55.4,45.8,30.11,ENE,71,0.0,0.0,70,0.00,,---,0.00,0.00,VWS V14.00,2013-09-06 01:14:00,
2013-09-05 21:19:00,55.4,45.0,30.11,ENE,71,0.0,1.0,68,0.00,,---,0.00,0.00,VWS V14.00,2013-09-06 01:19:00,
2013-09-05 21:24:00,55.3,44.5,30.11,ENE,71,0.0,0.0,67,0.00,,---,0.00,0.00,VWS V14.00,2013-09-06 01:24:00,
2013-09-05 21:29:00,55.1,44.0,30.11,ENE,71,0.0,0.0,66,0.00,,---,0.00,0.00,VWS V14.00,2013-09-06 01:29:00,
2013-09-05 21:34:00,55.0,43.9,30.12,ENE,71,0.0,0.0,66,0.00,,---,0.00,0.00,VWS V14.00,2013-09-06 01:34:00,
2013-09-05 21:39:00,54.8,44.1,30.12,ENE,71,0.0,0.0,67,0.00,,---,0.00,0.00,VWS V14.00,2013-09-06 01:39:00,
2013-09-05 21:44:00,54.7,44.4,30.12,ENE,71,0.0,0.0,68,0.00,,---,0.00,0.00,VWS V14.00,2013-09-06 01:44:00,
2013-09-05 21:49:00,54.5,44.5,30.13,ENE,71,0.0,0.0,69,0.00,,---,0.00,0.00,VWS V14.00,2013-09-06 01:49:00,
2013-09-05 21:54:00,54.2,44.6,30.13,ENE,71,0.0,0.0,70,0.00,,---,0.00,0.00,VWS V14.00,2013-09-06 01:54:00,
2013-09-05 21:59:00,54.1,45.3,30.13,ENE,71,0.0,0.0,72,0.00,,---,0.00,0.00,VWS V14.00,2013-09-06 01:59:00,
2013-09-05 22:04:00,53.9,45.5,30.13,ENE,71,0.0,0.0,73,0.00,,---,0.00,0.00,VWS V14.00,2013-09-06 02:04:00,
2013-09-05 22:09:00,53.6,45.5,30.13,ENE,71,0.0,0.0,74,0.00,,---,0.00,0.00,VWS V14.00,2013-09-06 02:09:00,
2013-09-05 22:14:00,53.5,45.4,30.13,ENE,71,0.0,0.0,74,0.00,,---,0.00,0.00,VWS V14.00,2013-09-06 02:14:00,
2013-09-05 22:19:00,53.2,45.5,30.13,ENE,71,0.0,0.0,75,0.00,,---,0.00,0.00,VWS V14.00,2013-09-06 02:19:00,
2013-09-05 22:24:00,53.1,45.8,30.14,ENE,71,0.0,0.0,76,0.00,,---,0.00,0.00,VWS V14.00,2013-09-06 02:24:00,
2013-09-05 22:29:00,52.9,45.5,30.14,ENE,71,0.0,0.0,76,0.00,,---,0.00,0.00,VWS V14.00,2013-09-06 02:29:00,
2013-09-05 22:34:00,52.8,45.5,30.14,ENE,71,0.0,0.0,76,0.00,,---,0.00,0.00,VWS V14.00,2013-09-06 02:34:00,
2013-09-05 22:39:00,52.8,45.5,30.14,ENE,71,0.0,0.0,76,0.00,,---,0.00,0.00,VWS V14.00,2013-09-06 02:39:00,
2013-09-05 22:44:00,52.6,45.3,30.14,ENE,71,0.0,0.0,76,0.00,,---,0.00,0.00,VWS V14.00,2013-09-06 02:44:00,
2013-09-05 22:49:00,52.5,45.2,30.14,ENE,71,0.0,0.0,76,0.00,,---,0.00,0.00,VWS V14.00,2013-09-06 02:49:00,
2013-09-05 22:54:00,52.3,45.0,30.14,ENE,71,0.0,0.0,76,0.00,,---,0.00,0.00,VWS V14.00,2013-09-06 02:54:00,
2013-09-05 22:59:00,52.2,44.9,30.14,ENE,71,0.0,0.0,76,0.00,,---,0.00,0.00,VWS V14.00,2013-09-06 02:59:00,
2013-09-05 23:04:00,52.0,45.0,30.15,ENE,71,0.0,0.0,77,0.00,,---,0.00,0.00,VWS V14.00,2013-09-06 03:04:00,
2013-09-05 23:09:00,51.9,44.9,30.15,ENE,71,0.0,0.0,77,0.00,,---,0.00,0.00,VWS V14.00,2013-09-06 03:09:00,
2013-09-05 23:14:00,51.9,45.3,30.15,ENE,71,0.0,0.0,78,0.00,,---,0.00,0.00,VWS V14.00,2013-09-06 03:14:00,
2013-09-05 23:19:00,51.7,44.7,30.15,ENE,71,0.0,0.0,77,0.00,,---,0.00,0.00,VWS V14.00,2013-09-06 03:19:00,
2013-09-05 23:24:00,51.6,45.0,30.15,ENE,71,0.0,0.0,78,0.00,,---,0.00,0.00,VWS V14.00,2013-09-06 03:24:00,
2013-09-05 23:29:00,51.6,45.0,30.15,ENE,71,0.0,0.0,78,0.00,,---,0.00,0.00,VWS V14.00,2013-09-06 03:29:00,
2013-09-05 23:34:00,51.4,45.1,30.15,ENE,71,0.0,0.0,79,0.00,,---,0.00,0.00,VWS V14.00,2013-09-06 03:34:00,
2013-09-05 23:39:00,51.4,45.1,30.15,ENE,71,0.0,0.0,79,0.00,,---,0.00,0.00,VWS V14.00,2013-09-06 03:39:00,
2013-09-05 23:44:00,51.3,45.0,30.15,ENE,71,0.0,0.0,79,0.00,,---,0.00,0.00,VWS V14.00,2013-09-06 03:44:00,
2013-09-05 23:49:00,51.3,45.3,30.16,ENE,71,0.0,0.0,80,0.00,,---,0.00,0.00,VWS V14.00,2013-09-06 03:49:00,
2013-09-05 23:54:00,51.3,45.3,30.15,ENE,71,0.0,0.0,80,0.00,,---,0.00,0.00,VWS V14.00,2013-09-06 03:54:00,
2013-09-05 23:59:00,51.1,45.2,30.16,ENE,71,0.0,0.0,80,0.00,,---,0.00,0.00,VWS V14.00,2013-09-06 03:59:00,